Date String (YYYY-MM-DD hh:mm:ss) UTC,Instrument flags,Ambient pressure (hPa),Sample flow (lpm),Bypass flow (lpm),Sample temperature (°C),Ambient temperature (°C),ASC tube jacket temperature (°C),LED temperature (°C),Box temperature (°C),Sample RH (%),Span deviation,Mass concentration (μg/m³),Mass concentration (μg/m³),Mass concentration (μg/m³)
DateTimeUTC,F1_M11,P_M11,Q1_M11,Q2_M11,T1_M11,T2_M11,T3_M11,T4_M11,T5_M11,U1_M11,ZSPAN_M11,X0_M11,X2_M11,X1_M11
2022-12-21 14:00:00,,0819.8,4.98,0.00,21.9,21.5,00.0,30.6,23.7,09.1,0000.0,0002.59,0001.34,0000.90
2022-12-21 14:01:00,,0819.8,5.02,0.00,21.9,21.2,00.0,30.7,23.6,09.1,0000.0,0002.69,0001.38,0000.90
2022-12-21 14:02:00,,0819.9,5.00,0.00,21.9,20.9,00.0,30.7,23.5,09.0,0000.0,0002.85,0001.42,0000.90
2022-12-21 14:03:00,,0819.8,4.98,0.00,21.8,20.6,00.0,30.6,23.4,09.1,0000.0,0002.70,0001.41,0000.89
2022-12-21 14:04:00,,0819.9,5.04,0.00,21.8,20.4,00.0,30.6,23.3,09.0,0000.0,0002.63,0001.39,0000.89
2022-12-21 14:05:00,,0819.9,5.01,0.00,21.7,20.2,00.0,30.6,23.3,09.0,0000.0,0002.61,0001.37,0000.89
2022-12-21 14:06:00,,0819.9,4.95,0.00,21.7,20.1,00.0,30.6,23.2,09.1,0000.0,0002.58,0001.38,0000.89
2022-12-21 14:07:00,,0820.0,5.03,0.00,21.7,20.6,00.0,30.6,23.4,09.0,0000.0,0002.68,0001.38,0000.89
2022-12-21 14:08:00,,0819.9,4.99,0.00,21.8,21.7,00.0,30.6,23.7,08.9,0000.0,0002.73,0001.36,0000.89
2022-12-21 14:09:00,,0820.0,5.01,0.00,21.9,22.0,00.0,30.6,23.8,08.8,0000.0,0002.73,0001.33,0000.88
2022-12-21 14:10:00,,0820.0,5.00,0.00,21.9,21.5,00.0,30.7,23.7,08.8,0000.0,0002.67,0001.30,0000.86
2022-12-21 14:11:00,,0820.0,4.99,0.00,21.9,21.1,00.0,30.7,23.6,08.8,0000.0,0002.69,0001.32,0000.85
2022-12-21 14:12:00,,0819.9,5.02,0.00,21.8,20.7,00.0,30.7,23.5,08.8,0000.0,0002.59,0001.27,0000.84
2022-12-21 14:13:00,,0819.9,4.96,0.00,21.8,20.6,00.0,30.7,23.4,08.7,0000.0,0002.38,0001.21,0000.82
2022-12-21 14:14:00,,0819.9,5.01,0.00,21.8,20.4,00.0,30.7,23.4,08.8,0000.0,0002.25,0001.17,0000.83
2022-12-21 14:15:00,,0819.9,5.02,0.00,21.8,20.4,00.0,30.7,23.3,08.8,0000.0,0002.26,0001.18,0000.83
2022-12-21 14:16:00,,0819.9,4.99,0.00,21.7,20.3,00.0,30.7,23.3,08.7,0000.0,0002.27,0001.19,0000.82
2022-12-21 14:17:00,,0820.0,4.98,0.00,21.7,20.1,00.0,30.6,23.2,08.6,0000.0,0002.24,0001.18,0000.81
2022-12-21 14:18:00,,0820.0,5.03,0.00,21.7,20.5,00.0,30.6,23.3,08.7,0000.0,0002.14,0001.14,0000.80
2022-12-21 14:19:00,,0820.0,4.99,0.00,21.8,21.6,00.0,30.6,23.6,08.6,0000.0,0001.96,0001.12,0000.79
2022-12-21 14:20:00,,0820.1,5.02,0.00,21.9,22.2,00.0,30.6,23.8,08.5,0000.0,0001.98,0001.10,0000.78
2022-12-21 14:21:00,,0820.0,4.96,0.00,21.9,21.8,00.0,30.7,23.8,08.5,0000.0,0001.97,0001.10,0000.79
2022-12-21 14:22:00,,0820.1,5.04,0.00,21.9,21.3,00.0,30.7,23.7,08.5,0000.0,0002.01,0001.07,0000.78
2022-12-21 14:23:00,,0820.0,4.99,0.00,21.9,21.0,00.0,30.7,23.6,08.5,0000.0,0002.02,0001.08,0000.78
2022-12-21 14:24:00,,0820.0,4.98,0.00,21.9,20.8,00.0,30.7,23.5,08.5,0000.0,0002.07,0001.10,0000.79
2022-12-21 14:25:00,,0820.0,5.03,0.00,21.8,20.6,00.0,30.7,23.5,08.6,0000.0,0002.09,0001.12,0000.80
2022-12-21 14:26:00,,0820.0,4.99,0.00,21.8,20.4,00.0,30.7,23.4,08.7,0000.0,0002.79,0001.11,0000.79
2022-12-21 14:27:00,,0819.9,4.96,0.00,21.8,20.4,00.0,30.7,23.4,08.7,0000.0,0003.46,0001.11,0000.79
2022-12-21 14:28:00,,0820.0,5.04,0.00,21.8,20.3,00.0,30.7,23.4,08.7,0000.0,0003.48,0001.12,0000.79
2022-12-21 14:29:00,,0820.0,5.02,0.00,21.7,20.2,00.0,30.7,23.4,08.7,0000.0,0003.72,0001.11,0000.79
2022-12-21 14:30:00,,0820.1,4.95,0.00,21.7,20.2,00.0,30.7,23.3,08.7,0000.0,0003.90,0001.14,0000.79
2022-12-21 14:31:00,,0820.0,5.03,0.00,21.7,20.3,00.0,30.6,23.3,08.8,0000.0,0003.81,0001.17,0000.80
2022-12-21 14:32:00,,0820.0,5.02,0.00,21.8,21.4,00.0,30.6,23.6,08.7,0000.0,0003.81,0001.18,0000.79
2022-12-21 14:33:00,,0820.1,4.97,0.00,21.9,22.2,00.0,30.6,23.8,08.7,0000.0,0003.72,0001.19,0000.79
2022-12-21 14:34:00,,0820.0,4.99,0.00,21.9,21.8,00.0,30.7,23.8,08.7,0000.0,0003.83,0001.22,0000.80
2022-12-21 14:35:00,,0820.0,5.01,0.00,21.9,21.2,00.0,30.7,23.6,08.7,0000.0,0003.81,0001.21,0000.80
2022-12-21 14:36:00,,0820.0,5.04,0.00,21.8,20.8,00.0,30.7,23.5,08.8,0000.0,0003.82,0001.22,0000.80
2022-12-21 14:37:00,,0819.9,4.95,0.00,21.8,20.5,00.0,30.7,23.4,08.8,0000.0,0003.15,0001.20,0000.80
2022-12-21 14:38:00,,0819.9,5.02,0.00,21.8,20.3,00.0,30.7,23.4,08.8,0000.0,0002.42,0001.19,0000.80
2022-12-21 14:39:00,,0819.9,5.02,0.00,21.7,20.3,00.0,30.7,23.3,08.9,0000.0,0002.40,0001.18,0000.80
2022-12-21 14:40:00,,0819.9,5.01,0.00,21.7,20.2,00.0,30.7,23.3,08.9,0000.0,0002.19,0001.18,0000.80
2022-12-21 14:41:00,,0819.9,4.96,0.00,21.7,20.2,00.0,30.6,23.3,08.9,0000.0,0001.86,0001.15,0000.80
2022-12-21 14:42:00,,0819.8,5.02,0.00,21.7,20.1,00.0,30.6,23.2,08.9,0000.0,0001.85,0001.12,0000.80
2022-12-21 14:43:00,,0819.7,5.02,0.00,21.6,20.1,00.0,30.6,23.2,09.0,0000.0,0001.83,0001.13,0000.81
2022-12-21 14:44:00,,0819.7,5.00,0.00,21.6,20.0,00.0,30.6,23.2,09.0,0000.0,0001.79,0001.12,0000.82
2022-12-21 14:45:00,,0819.6,4.96,0.00,21.6,20.0,00.0,30.6,23.2,09.0,0000.0,0001.72,0001.10,0000.82
2022-12-21 14:46:00,,0819.7,5.04,0.00,21.6,20.8,00.0,30.5,23.3,09.1,0000.0,0001.74,0001.10,0000.83
2022-12-21 14:47:00,,0819.7,4.99,0.00,21.7,21.9,00.0,30.5,23.6,09.0,0000.0,0001.69,0001.07,0000.82
2022-12-21 14:48:00,,0819.7,5.01,0.00,21.8,22.1,00.0,30.6,23.8,08.9,0000.0,0001.79,0001.10,0000.83
2022-12-21 14:49:00,,0819.6,4.96,0.00,21.9,21.7,00.0,30.6,23.7,08.8,0000.0,0001.74,0001.08,0000.83
2022-12-21 14:50:00,,0819.5,5.03,0.00,21.9,21.4,00.0,30.6,23.7,08.7,0000.0,0001.76,0001.10,0000.82
2022-12-21 14:51:00,,0819.5,5.02,0.00,21.9,21.1,00.0,30.7,23.6,08.7,0000.0,0001.77,0001.12,0000.82
2022-12-21 14:52:00,,0819.4,4.95,0.00,21.9,20.9,00.0,30.7,23.6,08.5,0000.0,0001.82,0001.13,0000.81
2022-12-21 14:53:00,,0819.3,5.03,0.00,21.8,20.7,00.0,30.7,23.5,08.4,0000.0,0001.78,0001.11,0000.81
2022-12-21 14:54:00,,0819.2,5.01,0.00,21.8,20.6,00.0,30.7,23.5,08.4,0000.0,0001.82,0001.11,0000.81
2022-12-21 14:55:00,,0819.2,4.95,0.00,21.8,20.5,00.0,30.7,23.5,08.4,0000.0,0001.83,0001.10,0000.79
2022-12-21 14:56:00,,0819.3,5.01,0.00,21.8,20.4,00.0,30.7,23.5,08.4,0000.0,0001.79,0001.08,0000.78
2022-12-21 14:57:00,,0819.2,5.03,0.00,21.8,20.4,00.0,30.7,23.5,08.5,0000.0,0001.85,0001.09,0000.77
2022-12-21 14:58:00,,0819.3,4.97,0.00,21.8,20.4,00.0,30.7,23.5,08.5,0000.0,0001.95,0001.12,0000.77
2022-12-21 14:59:00,,0819.2,4.98,0.00,21.8,20.4,00.0,30.6,23.4,08.5,0000.0,0001.98,0001.14,0000.76
